User: anonymous   Login
Location: Ostrava
(49.8330°N, 18.2830°E)
Time: 04:37:19
(UTC+02:00)
Language:

NOAA 19 - Orbit

View from above orbital plane
View from above orbital plane
View from above satellite
View from above satellite

Ground track
Ground track

The orbit data is extracted from the following two-line orbital elements,

1 33591U 09005A   16207.49182166  .00000083  00000-0  69882-4 0  9996
2 33591  99.0428 164.5849 0015011 109.4452 250.8342 14.12091623384542
Epoch (UTC): 25 July 2016 11:48:13
Eccentricity: 0.0015011
inclination: 99.0428°
perigee height: 841 km
apogee height: 863 km
right ascension of ascending node: 164.5849°
argument of perigee: 109.4452°
revolutions per day: 14.12091623
mean anomaly at epoch: 250.8342°
orbit number at epoch: 38454

The dashed part of the orbit path shows where the satellite is in the earth's shadow,  

DLR